This demonstration page uses our WeatherBlox Daily Observations layout. Learn more.

Hourly Observations for December 30, 2018

Temp ( °F °C ) Dew Point ( °F °C ) Humidity (%) Winds ( mph kmh ) Pressure ( in mb ) Visibility ( mi km ) Precip ( " mm )
12:15 am 00:15 Clear 34 1 32 0 93 93 Calm 30.27 1025 10 16.09344 0 0
12:35 am 00:35 Clear 36 2 32 0 87 87 Calm 30.27 1025 10 16.09344 0 0
12:55 am 00:55 Clear 36 2 32 0 87 87 Calm 30.24 1024 10 16.09344 0 0
1:15 am 01:15 Clear 36 2 32 0 87 87 SSW 5 7 30.27 1025 10 16.09344 0 0
1:35 am 01:35 Clear 34 1 32 0 93 93 Calm 30.27 1025 10 16.09344 0 0
1:55 am 01:55 Clear 32 0 32 0 100 100 Calm 30.27 1025 10 16.09344 0 0
2:15 am 02:15 Clear 34 1 32 0 93 93 Calm 30.24 1024 10 16.09344 0 0
2:35 am 02:35 Clear 34 1 32 0 93 93 Calm 30.24 1024 10 16.09344 0 0
2:55 am 02:55 Partly Cloudy 32 0 32 0 100 100 NNW 3 6 30.27 1025 10 16.09344 0 0
3:15 am 03:15 Mostly Cloudy 32 0 32 0 100 100 Calm 30.24 1024 10 16.09344 0 0
3:35 am 03:35 Partly Cloudy 34 1 32 0 93 93 Calm 30.21 1023 10 16.09344 0 0
3:55 am 03:55 Partly Cloudy 32 0 32 0 100 100 NW 3 6 30.24 1024 10 16.09344 0 0
4:15 am 04:15 Clear 32 0 32 0 100 100 Calm 30.24 1024 10 16.09344 0 0
4:35 am 04:35 Clear 34 1 32 0 93 93 Calm 30.24 1024 10 16.09344 0 0
4:55 am 04:55 Clear 32 0 32 0 100 100 W 3 6 30.24 1024 10 16.09344 0 0
5:15 am 05:15 Clear 34 1 32 0 93 93 Calm 30.24 1024 10 16.09344 0 0
5:35 am 05:35 Partly Cloudy 34 1 32 0 93 93 NW 3 6 30.24 1024 10 16.09344 0 0
5:55 am 05:55 Partly Cloudy 34 1 32 0 93 93 NW 3 6 30.27 1025 10 16.09344 0 0
6:15 am 06:15 Mostly Cloudy 34 1 34 1 100 100 Calm 30.27 1025 10 16.09344 0 0
6:35 am 06:35 Cloudy 34 1 34 1 100 100 Calm 30.27 1025 10 16.09344 0 0
6:55 am 06:55 Cloudy 34 1 34 1 100 100 Calm 30.3 1026 10 16.09344 0 0
7:15 am 07:15 Cloudy 34 1 34 1 100 100 Calm 30.27 1025 10 16.09344 0 0
7:35 am 07:35 Cloudy 36 2 34 1 93 93 Calm 30.3 1026 10 16.09344 0 0
7:55 am 07:55 Mostly Cloudy 36 2 34 1 93 93 NNW 3 6 30.3 1026 10 16.09344 0 0
8:15 am 08:15 Partly Cloudy 36 2 34 1 93 93 Calm 30.3 1026 10 16.09344 0 0
8:35 am 08:35 Partly Cloudy 36 2 34 1 93 93 Calm 30.3 1026 10 16.09344 0 0
8:55 am 08:55 Mostly Cloudy 36 2 34 1 93 93 Calm 30.3 1026 10 16.09344 0 0
9:15 am 09:15 Cloudy 37 3 34 1 87 87 S 3 6 30.3 1026 10 16.09344 0 0
9:35 am 09:35 Cloudy 39 4 34 1 81 81 S 3 6 30.3 1026 10 16.09344 0 0
9:55 am 09:55 Cloudy 41 5 34 1 76 76 S 6 9 30.27 1025 10 16.09344 0 0
10:15 am 10:15 Mostly Cloudy 41 5 34 1 76 76 S 7 11 30.27 1025 10 16.09344 0 0
10:35 am 10:35 Partly Cloudy 41 5 34 1 76 76 S 8 13 30.27 1025 10 16.09344 0 0
10:55 am 10:55 Sunny 41 5 34 1 76 76 SSW 5 7 30.27 1025 10 16.09344 0 0
11:15 am 11:15 Sunny 43 6 34 1 71 71 S 5 7 30.24 1024 10 16.09344 0 0
11:35 am 11:35 Sunny 43 6 34 1 71 71 S 5 7 30.24 1024 10 16.09344 0 0
11:55 am 11:55 Sunny 45 7 36 2 71 71 SSE 5 7 30.21 1023 10 16.09344 0 0
12:15 pm 12:15 Sunny 45 7 36 2 71 71 S 3 6 30.21 1023 10 16.09344 0 0
12:35 pm 12:35 Sunny 45 7 36 2 71 71 S 5 7 30.21 1023 10 16.09344 0 0
12:55 pm 12:55 Sunny 46 8 36 2 66 66 Calm 30.21 1023 10 16.09344 0 0
1:15 pm 13:15 Sunny 46 8 36 2 66 66 S 5 7 30.18 1022 10 16.09344 0 0
1:35 pm 13:35 Sunny 46 8 36 2 66 66 SE 5 7 30.18 1022 10 16.09344 0 0
1:55 pm 13:55 Sunny 46 8 36 2 66 66 SE 6 9 30.18 1022 10 16.09344 0 0
2:15 pm 14:15 Sunny 46 8 36 2 66 66 SSW 5 7 30.21 1023 10 16.09344 0 0
2:35 pm 14:35 Sunny 46 8 36 2 66 66 S 3 6 30.21 1023 10 16.09344 0 0
2:55 pm 14:55 Sunny 46 8 36 2 66 66 Calm 30.21 1023 10 16.09344 0 0
3:15 pm 15:15 Sunny 46 8 36 2 66 66 S 3 6 30.21 1023 10 16.09344 0 0
3:35 pm 15:35 Sunny 46 8 36 2 66 66 SSE 5 7 30.21 1023 10 16.09344 0 0
3:55 pm 15:55 Sunny 46 8 36 2 66 66 S 5 7 30.24 1024 10 16.09344 0 0
4:15 pm 16:15 Sunny 46 8 36 2 66 66 S 5 7 30.24 1024 10 16.09344 0 0
4:35 pm 16:35 Sunny 46 8 36 2 66 66 S 6 9 30.24 1024 10 16.09344 0 0
4:55 pm 16:55 Sunny 45 7 36 2 71 71 S 6 9 30.24 1024 10 16.09344 0 0
5:15 pm 17:15 Clear 45 7 36 2 71 71 S 5 7 30.24 1024 10 16.09344 0 0
5:35 pm 17:35 Clear 43 6 36 2 76 76 S 5 7 30.24 1024 10 16.09344 0 0
5:55 pm 17:55 Clear 43 6 36 2 76 76 S 5 7 30.24 1024 10 16.09344 0 0
6:15 pm 18:15 Clear 43 6 36 2 76 76 S 5 7 30.27 1025 10 16.09344 0 0
6:35 pm 18:35 Clear 41 5 36 2 81 81 S 5 7 30.27 1025 10 16.09344 0 0
6:55 pm 18:55 Clear 41 5 36 2 81 81 SSW 3 6 30.27 1025 10 16.09344 0 0
7:15 pm 19:15 Clear 41 5 36 2 81 81 S 5 7 30.27 1025 10 16.09344 0 0
7:35 pm 19:35 Clear 39 4 36 2 87 87 SSW 3 6 30.27 1025 10 16.09344 0 0
7:55 pm 19:55 Clear 37 3 36 2 93 93 S 3 6 30.27 1025 10 16.09344 0 0
8:15 pm 20:15 Clear 36 2 36 2 100 100 S 3 6 30.27 1025 10 16.09344 0 0
8:35 pm 20:35 Clear 36 2 36 2 100 100 S 3 6 30.3 1026 10 16.09344 0 0
8:55 pm 20:55 Clear 37 3 36 2 93 93 Calm 30.3 1026 10 16.09344 0 0
9:15 pm 21:15 Clear 34 1 34 1 100 100 Calm 30.3 1026 10 16.09344 0 0
9:35 pm 21:35 Clear 34 1 34 1 100 100 Calm 30.3 1026 10 16.09344 0 0
9:55 pm 21:55 Clear 34 1 34 1 100 100 Calm 30.3 1026 10 16.09344 0 0
10:15 pm 22:15 Clear 32 0 32 0 100 100 Calm 30.3 1026 10 16.09344 0 0
10:35 pm 22:35 Clear 34 1 34 1 100 100 Calm 30.3 1026 10 16.09344 0 0
10:55 pm 22:55 Clear 32 0 32 0 100 100 Calm 30.27 1025 10 16.09344 0 0
11:15 pm 23:15 Clear 32 0 32 0 100 100 Calm 30.3 1026 10 16.09344 0 0
11:35 pm 23:35 Clear 32 0 32 0 100 100 Calm 30.3 1026 10 16.09344 0 0
11:55 pm 23:55 Clear 32 0 32 0 100 100 Calm 30.3 1026 10 16.09344 0 0

Powered by AerisWeather